TimePDT,TemperatureF,Dew PointF,Humidity,Sea Level PressureIn,VisibilityMPH,Wind Direction,Wind SpeedMPH,Gust SpeedMPH,PrecipitationIn,Events,Conditions,WindDirDegrees,DateUTC
12:44 AM,55.4,51.8,88,30.11,10.0,Calm,Calm,-,N/A,,Mostly Cloudy,0,2013-04-05 07:44:00
12:53 AM,55.0,51.1,86,30.12,10.0,North,4.6,-,N/A,,Mostly Cloudy,350,2013-04-05 07:53:00
1:10 AM,55.4,51.8,88,30.12,10.0,SW,3.5,-,N/A,,Mostly Cloudy,220,2013-04-05 08:10:00
1:46 AM,55.4,51.8,88,30.13,10.0,Variable,3.5,-,N/A,,Mostly Cloudy,0,2013-04-05 08:46:00
1:53 AM,55.9,51.1,84,30.12,10.0,East,4.6,-,N/A,,Overcast,90,2013-04-05 08:53:00
2:16 AM,53.6,51.8,94,30.13,10.0,Calm,Calm,-,N/A,,Scattered Clouds,0,2013-04-05 09:16:00
2:53 AM,54.0,51.1,90,30.13,10.0,Calm,Calm,-,N/A,,Mostly Cloudy,0,2013-04-05 09:53:00
3:53 AM,54.0,51.1,90,30.13,10.0,SW,3.5,-,N/A,,Mostly Cloudy,220,2013-04-05 10:53:00
4:53 AM,54.0,51.1,90,30.14,10.0,Calm,Calm,-,N/A,,Overcast,0,2013-04-05 11:53:00
5:53 AM,54.0,51.1,90,30.14,10.0,SW,5.8,-,N/A,,Mostly Cloudy,230,2013-04-05 12:53:00
6:53 AM,53.1,51.1,93,30.14,10.0,SW,4.6,-,N/A,,Mostly Cloudy,230,2013-04-05 13:53:00
7:53 AM,54.0,52.0,93,30.15,10.0,SSW,6.9,-,N/A,,Partly Cloudy,210,2013-04-05 14:53:00
8:53 AM,59.0,52.0,78,30.16,10.0,SSW,8.1,-,N/A,,Clear,200,2013-04-05 15:53:00
9:53 AM,62.1,50.0,65,30.15,10.0,Variable,6.9,-,N/A,,Clear,0,2013-04-05 16:53:00
10:53 AM,64.0,48.9,58,30.16,10.0,WSW,9.2,-,N/A,,Clear,240,2013-04-05 17:53:00
11:53 AM,64.0,51.1,63,30.17,10.0,WSW,15.0,18.4,N/A,,Partly Cloudy,250,2013-04-05 18:53:00
12:53 PM,66.0,50.0,56,30.17,10.0,West,10.4,21.9,N/A,,Clear,260,2013-04-05 19:53:00
1:53 PM,64.9,50.0,58,30.14,10.0,West,11.5,-,N/A,,Clear,260,2013-04-05 20:53:00
2:53 PM,64.0,51.1,63,30.14,10.0,West,10.4,-,N/A,,Clear,260,2013-04-05 21:53:00
3:53 PM,66.9,52.0,59,30.12,10.0,WSW,11.5,17.3,N/A,,Scattered Clouds,240,2013-04-05 22:53:00
4:53 PM,64.0,48.9,58,30.12,10.0,SW,12.7,-,N/A,,Clear,230,2013-04-05 23:53:00
5:53 PM,64.0,48.9,58,30.11,10.0,WSW,12.7,-,N/A,,Clear,240,2013-04-06 00:53:00
6:53 PM,61.0,48.9,64,30.12,10.0,SW,15.0,21.9,N/A,,Clear,220,2013-04-06 01:53:00
7:53 PM,59.0,48.9,69,30.11,10.0,SW,13.8,-,N/A,,Clear,230,2013-04-06 02:53:00
8:53 PM,57.0,48.9,74,30.13,10.0,Calm,Calm,-,N/A,,Clear,0,2013-04-06 03:53:00
9:53 PM,57.0,46.9,69,30.15,10.0,WSW,5.8,-,N/A,,Clear,250,2013-04-06 04:53:00
10:53 PM,55.9,46.9,72,30.15,10.0,WSW,5.8,-,N/A,,Clear,240,2013-04-06 05:53:00
11:53 PM,53.1,48.0,83,30.15,10.0,SSW,3.5,-,N/A,,Clear,200,2013-04-06 06:53:00